Simultaneous Nadir Overpasses (SNOs) Predictions

Prediction of SNOs between METOP-B and NOAA-19 Satellite Orbit:

Table of predicted SNOs for the next 14.0 days since TLE Epoch: 11/16/2024
Index Date (METOP-B) Time (METOP-B) Lat,Lon (METOP-B) SZA (METOP-B ) Date (NOAA-19) Time (NOAA-19) Lat,Lon (NOAA-19) SZA (NOAA-19 ) Distance(km) Time Diff (sec)
1 11/21/2024 12:59:50 -79.40,-109.51 70.47 11/21/2024 12:58:44 -79.41,-109.54 70.53 1.02 66
2 11/21/2024 13:50:29 79.34, 58.31 109.63 11/21/2024 13:49:45 79.33, 58.35 109.60 0.77 44
3 11/21/2024 14:41:08 -79.29,-134.02 70.31 11/21/2024 14:40:37 -79.28,-133.90 70.31 2.98 31
4 11/21/2024 15:31:47 79.23, 33.79 109.78 11/21/2024 15:31:39 79.23, 33.71 109.76 1.84 8
5 11/21/2024 16:22:25 -79.14,-158.30 70.11 11/21/2024 16:22:30 -79.14,-158.28 70.10 0.39 5
6 11/21/2024 17:13:03 79.04, 9.76 110.03 11/21/2024 17:13:30 79.03, 9.84 110.07 2.13 27
7 11/21/2024 18:03:41 -78.99, 177.40 69.91 11/21/2024 18:04:22 -79.00, 177.31 69.89 2.24 41



Historial Predications of SNOs between METOP-B and NOAA-19
